Time,TemperatureF,DewpointF,PressureIn,WindDirection,WindDirectionDegrees,WindSpeedMPH,WindSpeedGustMPH,Humidity,HourlyPrecipIn,Conditions,Clouds,dailyrainin,SoftwareType,DateUTC
2013-09-09 00:14:00,69.0,63.0,29.97,ESE,123,3.0,9.0,81,0.00,,,0.00,,2013-09-09 04:14:00,
2013-09-09 00:24:00,69.0,63.0,29.98,SE,134,1.0,7.0,82,0.00,,,0.00,,2013-09-09 04:24:00,
2013-09-09 00:43:00,69.0,63.0,29.97,SE,131,2.0,10.0,82,0.00,,,0.00,,2013-09-09 04:43:00,
2013-09-09 00:54:00,68.0,62.0,29.98,SSE,149,2.0,9.0,82,0.00,,,0.00,,2013-09-09 04:54:00,
2013-09-09 01:13:00,68.0,63.0,29.98,SE,143,3.0,7.0,83,0.00,,,0.00,,2013-09-09 05:13:00,
2013-09-09 01:23:00,67.0,62.0,29.98,SE,126,3.0,9.0,84,0.00,,,0.00,,2013-09-09 05:23:00,
2013-09-09 01:43:00,67.0,62.0,29.98,ESE,123,2.0,5.0,84,0.00,,,0.00,,2013-09-09 05:43:00,
2013-09-09 01:53:00,67.0,62.0,29.99,ESE,103,2.0,8.0,84,0.00,,,0.00,,2013-09-09 05:53:00,
2013-09-09 02:12:00,67.0,62.0,29.99,ESE,115,3.0,9.0,84,0.00,,,0.00,,2013-09-09 06:12:00,
2013-09-09 02:21:00,67.0,62.0,29.99,SSE,157,3.0,7.0,83,0.00,,,0.00,,2013-09-09 06:21:00,
2013-09-09 02:42:00,67.0,62.0,29.99,SE,130,2.0,5.0,83,0.00,,,0.00,,2013-09-09 06:42:00,
2013-09-09 02:52:00,67.0,61.0,29.99,ESE,119,2.0,6.0,81,0.00,,,0.00,,2013-09-09 06:52:00,
2013-09-09 03:11:00,67.0,60.0,29.98,SSE,165,2.0,9.0,79,0.00,,,0.00,,2013-09-09 07:11:00,
2013-09-09 03:22:00,67.0,60.0,29.98,SE,134,3.0,7.0,78,0.00,,,0.00,,2013-09-09 07:22:00,
2013-09-09 03:43:00,67.0,60.0,29.98,ESE,113,3.0,8.0,77,0.00,,,0.00,,2013-09-09 07:43:00,
2013-09-09 03:52:00,67.0,60.0,29.96,ESE,107,3.0,8.0,77,0.00,,,0.00,,2013-09-09 07:52:00,
2013-09-09 04:11:00,66.0,59.0,29.96,SSE,164,1.0,8.0,77,0.00,,,0.00,,2013-09-09 08:11:00,
2013-09-09 04:22:00,66.0,59.0,29.97,SE,136,1.0,5.0,77,0.00,,,0.00,,2013-09-09 08:22:00,
2013-09-09 04:52:00,66.0,59.0,29.96,SE,128,0.0,4.0,77,0.00,,,0.00,,2013-09-09 08:52:00,
2013-09-09 05:12:00,65.0,58.0,29.96,East,82,0.0,2.0,78,0.00,,,0.00,,2013-09-09 09:12:00,
2013-09-09 05:22:00,65.0,58.0,29.95,SE,126,0.0,4.0,77,0.00,,,0.00,,2013-09-09 09:22:00,
2013-09-09 05:53:00,65.0,58.0,29.96,SE,141,0.0,2.0,78,0.00,,,0.00,,2013-09-09 09:53:00,
2013-09-09 06:12:00,65.0,58.0,29.95,SE,141,0.0,2.0,78,0.00,,,0.00,,2013-09-09 10:12:00,
2013-09-09 06:23:00,65.0,58.0,29.95,SE,128,0.0,3.0,79,0.00,,,0.00,,2013-09-09 10:23:00,
2013-09-09 06:42:00,65.0,59.0,29.95,SE,144,1.0,3.0,80,0.00,,,0.00,,2013-09-09 10:42:00,
2013-09-09 06:52:00,65.0,58.0,29.94,SE,142,1.0,5.0,79,0.00,,,0.00,,2013-09-09 10:52:00,
2013-09-09 07:12:00,65.0,59.0,29.94,SE,128,1.0,7.0,80,0.00,,,0.00,,2013-09-09 11:12:00,
2013-09-09 07:22:00,65.0,59.0,29.94,SE,126,2.0,5.0,80,0.00,,,0.00,,2013-09-09 11:22:00,
2013-09-09 07:42:00,65.0,58.0,29.94,SSE,161,2.0,6.0,79,0.00,,,0.00,,2013-09-09 11:42:00,
2013-09-09 07:52:00,65.0,59.0,29.94,SSE,147,1.0,4.0,80,0.00,,,0.00,,2013-09-09 11:52:00,
2013-09-09 08:12:00,65.0,59.0,29.94,SE,124,0.0,3.0,82,0.00,,,0.00,,2013-09-09 12:12:00,
2013-09-09 08:22:00,65.0,60.0,29.95,SE,136,0.0,4.0,83,0.00,,,0.00,,2013-09-09 12:22:00,
2013-09-09 08:42:00,65.0,60.0,29.95,East,85,2.0,4.0,83,0.00,,,0.00,,2013-09-09 12:42:00,
2013-09-09 08:52:00,65.0,60.0,29.96,SE,138,1.0,5.0,83,0.00,,,0.00,,2013-09-09 12:52:00,
2013-09-09 09:11:00,65.0,60.0,29.96,SE,140,2.0,7.0,83,0.00,,,0.00,,2013-09-09 13:11:00,
2013-09-09 09:21:00,65.0,60.0,29.96,SE,137,2.0,5.0,83,0.00,,,0.00,,2013-09-09 13:21:00,
2013-09-09 09:32:00,65.0,60.0,29.96,SE,137,2.0,5.0,83,0.00,,,0.00,,2013-09-09 13:32:00,
2013-09-09 09:42:00,65.0,60.0,29.96,SE,137,2.0,5.0,83,0.00,,,0.00,,2013-09-09 13:42:00,
2013-09-09 09:52:00,66.0,60.0,29.96,SE,131,2.0,6.0,82,0.00,,,0.00,,2013-09-09 13:52:00,
2013-09-09 10:12:00,66.0,60.0,29.96,SE,141,2.0,5.0,82,0.00,,,0.00,,2013-09-09 14:12:00,
2013-09-09 10:22:00,67.0,62.0,29.95,SE,138,1.0,7.0,84,0.00,,,0.00,,2013-09-09 14:22:00,
2013-09-09 10:42:00,68.0,63.0,29.95,SE,132,2.0,7.0,84,0.00,,,0.00,,2013-09-09 14:42:00,
2013-09-09 10:52:00,70.0,64.0,29.95,SE,144,2.0,6.0,81,0.00,,,0.00,,2013-09-09 14:52:00,
2013-09-09 11:11:00,72.0,66.0,29.95,SE,137,2.0,6.0,81,0.00,,,0.00,,2013-09-09 15:11:00,
2013-09-09 11:22:00,72.0,66.0,29.95,SSE,156,2.0,6.0,81,0.00,,,0.00,,2013-09-09 15:22:00,
2013-09-09 11:43:00,72.0,67.0,29.94,SSE,154,3.0,8.0,83,0.00,,,0.00,,2013-09-09 15:43:00,
2013-09-09 11:53:00,73.0,67.0,29.94,SSE,148,3.0,5.0,82,0.00,,,0.00,,2013-09-09 15:53:00,
2013-09-09 12:13:00,75.0,68.0,29.93,ESE,118,3.0,8.0,80,0.00,,,0.00,,2013-09-09 16:13:00,
2013-09-09 12:24:00,77.0,69.0,29.93,SSE,155,2.0,9.0,77,0.00,,,0.00,,2013-09-09 16:24:00,
2013-09-09 12:43:00,78.0,69.0,29.93,ESE,117,2.0,8.0,75,0.00,,,0.00,,2013-09-09 16:43:00,
2013-09-09 12:54:00,79.0,70.0,29.92,South,184,2.0,7.0,75,0.00,,,0.00,,2013-09-09 16:54:00,
2013-09-09 13:12:00,80.0,71.0,29.92,East,95,3.0,8.0,74,0.00,,,0.00,,2013-09-09 17:12:00,
2013-09-09 13:23:00,81.0,72.0,29.92,SSE,150,2.0,8.0,73,0.00,,,0.00,,2013-09-09 17:23:00,
2013-09-09 13:52:00,83.0,72.0,29.91,South,177,3.0,8.0,70,0.00,,,0.00,,2013-09-09 17:52:00,
2013-09-09 14:13:00,84.0,73.0,29.91,SSE,161,1.0,9.0,70,0.00,,,0.00,,2013-09-09 18:13:00,
2013-09-09 14:22:00,85.0,73.0,29.90,ESE,111,3.0,7.0,67,0.00,,,0.00,,2013-09-09 18:22:00,
2013-09-09 14:52:00,87.0,74.0,29.89,SSE,161,2.0,10.0,65,0.00,,,0.00,,2013-09-09 18:52:00,
2013-09-09 15:12:00,87.0,73.0,29.88,SSW,202,3.0,8.0,63,0.00,,,0.00,,2013-09-09 19:12:00,
2013-09-09 15:22:00,88.0,73.0,29.88,SE,142,3.0,9.0,62,0.00,,,0.00,,2013-09-09 19:22:00,
2013-09-09 15:42:00,88.0,73.0,29.88,SE,127,4.0,11.0,62,0.00,,,0.00,,2013-09-09 19:42:00,
2013-09-09 15:52:00,89.0,74.0,29.87,SSW,193,2.0,6.0,62,0.00,,,0.00,,2013-09-09 19:52:00,
2013-09-09 16:12:00,89.0,73.0,29.87,SE,134,3.0,8.0,60,0.00,,,0.00,,2013-09-09 20:12:00,
2013-09-09 16:22:00,90.0,74.0,29.86,ESE,110,2.0,9.0,60,0.00,,,0.00,,2013-09-09 20:22:00,
2013-09-09 16:42:00,90.0,74.0,29.85,ESE,121,3.0,7.0,59,0.00,,,0.00,,2013-09-09 20:42:00,
2013-09-09 16:53:00,90.0,74.0,29.85,SE,131,3.0,8.0,59,0.00,,,0.00,,2013-09-09 20:53:00,
2013-09-09 17:12:00,89.0,73.0,29.84,ESE,116,3.0,7.0,59,0.00,,,0.00,,2013-09-09 21:12:00,
2013-09-09 17:22:00,90.0,74.0,29.84,SE,130,3.0,7.0,59,0.00,,,0.00,,2013-09-09 21:22:00,
2013-09-09 17:44:00,90.0,74.0,29.84,South,181,3.0,8.0,59,0.00,,,0.00,,2013-09-09 21:44:00,
2013-09-09 17:54:00,90.0,74.0,29.83,SE,125,3.0,8.0,59,0.00,,,0.00,,2013-09-09 21:54:00,
2013-09-09 18:13:00,90.0,74.0,29.83,SE,142,3.0,7.0,60,0.00,,,0.00,,2013-09-09 22:13:00,
2013-09-09 18:24:00,90.0,74.0,29.83,SSE,149,2.0,8.0,60,0.00,,,0.00,,2013-09-09 22:24:00,
2013-09-09 18:43:00,90.0,74.0,29.83,SSE,156,3.0,7.0,60,0.00,,,0.00,,2013-09-09 22:43:00,
2013-09-09 18:54:00,89.0,74.0,29.83,SSE,165,2.0,6.0,61,0.00,,,0.00,,2013-09-09 22:54:00,
2013-09-09 19:12:00,89.0,74.0,29.83,ESE,107,1.0,6.0,62,0.00,,,0.00,,2013-09-09 23:12:00,
2013-09-09 19:22:00,88.0,74.0,29.83,SE,146,0.0,4.0,64,0.00,,,0.00,,2013-09-09 23:22:00,
2013-09-09 19:42:00,88.0,75.0,29.83,SSE,154,1.0,4.0,65,0.00,,,0.00,,2013-09-09 23:42:00,
2013-09-09 19:52:00,87.0,74.0,29.83,South,169,0.0,4.0,66,0.00,,,0.00,,2013-09-09 23:52:00,
2013-09-09 20:12:00,86.0,74.0,29.83,SSE,167,0.0,2.0,68,0.00,,,0.00,,2013-09-10 00:12:00,
2013-09-09 20:22:00,85.0,74.0,29.83,South,171,0.0,1.0,70,0.00,,,0.00,,2013-09-10 00:22:00,
2013-09-09 20:42:00,84.0,74.0,29.84,SSE,154,0.0,2.0,71,0.00,,,0.00,,2013-09-10 00:42:00,
2013-09-09 20:52:00,83.0,73.0,29.84,South,183,0.0,2.0,73,0.00,,,0.00,,2013-09-10 00:52:00,
2013-09-09 21:11:00,82.0,73.0,29.84,South,182,0.0,1.0,74,0.00,,,0.00,,2013-09-10 01:11:00,
2013-09-09 21:21:00,81.0,73.0,29.84,South,182,0.0,1.0,76,0.00,,,0.00,,2013-09-10 01:21:00,
2013-09-09 21:42:00,81.0,73.0,29.84,South,182,0.0,1.0,77,0.00,,,0.00,,2013-09-10 01:42:00,
2013-09-09 21:52:00,80.0,72.0,29.85,South,182,0.0,1.0,78,0.00,,,0.00,,2013-09-10 01:52:00,
2013-09-09 22:12:00,80.0,73.0,29.85,South,182,0.0,1.0,80,0.00,,,0.00,,2013-09-10 02:12:00,
2013-09-09 22:22:00,79.0,72.0,29.85,South,182,0.0,0.0,80,0.00,,,0.00,,2013-09-10 02:22:00,
2013-09-09 22:42:00,79.0,73.0,29.85,South,182,0.0,0.0,81,0.00,,,0.00,,2013-09-10 02:42:00,
2013-09-09 22:52:00,79.0,73.0,29.86,South,182,0.0,0.0,82,0.00,,,0.00,,2013-09-10 02:52:00,
2013-09-09 23:12:00,78.0,72.0,29.86,South,182,0.0,0.0,82,0.00,,,0.00,,2013-09-10 03:12:00,
2013-09-09 23:22:00,78.0,72.0,29.86,SE,138,1.0,3.0,83,0.00,,,0.00,,2013-09-10 03:22:00,
2013-09-09 23:44:00,78.0,72.0,29.87,South,175,1.0,3.0,83,0.00,,,0.00,,2013-09-10 03:44:00,
2013-09-09 23:54:00,78.0,72.0,29.87,SE,134,1.0,3.0,82,0.00,,,0.00,,2013-09-10 03:54:00,